Theta_e
274 273 273 273 273 273 272 272 272 272 272 272 271 271 271 271 270 270 270 269 269 268 268 267 267 267 267 267 267 267 267 267 268 268 268 269 269 269 269 269 269 270 270 271 271 271 272 272 272 273 273 274 274 275 275 275 275 276 276 276 276 276 276 276 277 278 279 279 279 279 279 279 279 279 279 279 280 280 280 280 280 280 280 280 280
273 272 272 272 272 272 272 272 272 272 271 271 271 270 270 270 270 270 270 269 269 268 268 267 266 266 266 266 266 266 266 266 266 266 266 267 267 267 268 268 268 268 268 269 269 269 269 270 270 270 271 271 272 272 272 273 273 273 274 274 274 275 275 275 275 276 276 277 277 277 277 277 278 278 278 278 278 278 278 278 279 279 279 279 279
272 271 271 271 271 271 271 271 271 271 271 270 270 270 270 270 269 269 269 269 268 268 267 267 266 266 265 265 265 265 265 265 265 265 265 265 265 266 266 266 267 267 267 267 267 268 268 268 268 269 269 269 270 270 270 271 271 271 272 272 272 273 273 273 274 275 275 275 276 276 276 276 276 276 277 276 277 277 277 277 277 277 278 278 278
271 271 270 270 270 270 270 270 270 270 270 269 269 269 269 269 269 269 268 268 268 267 267 266 266 265 265 265 264 264 264 264 264 264 264 264 264 264 265 265 265 265 266 266 266 267 267 267 267 268 268 268 269 269 269 270 270 271 271 271 272 272 272 273 273 274 274 274 274 274 274 274 274 275 275 275 275 275 275 275 276 276 276 276 277
270 270 270 269 269 269 269 269 269 269 269 269 268 268 268 268 268 268 267 267 267 267 266 266 265 265 264 264 264 264 264 264 264 264 264 263 263 263 264 264 264 265 265 266 266 266 266 267 267 267 267 268 268 268 269 269 270 270 271 271 271 272 272 272 272 273 273 273 273 273 273 273 273 273 273 273 273 273 273 273 274 274 274 275 275
269 269 268 268 268 268 269 269 269 268 268 268 267 267 267 266 266 266 266 266 265 265 265 265 265 264 264 263 263 263 263 263 263 263 263 263 263 263 263 264 264 265 265 266 266 266 266 266 267 267 267 267 268 268 268 268 269 269 270 271 271 272 272 272 272 272 272 272 272 272 272 272 272 272 272 272 272 273 273 273 273 273 273 273 274
267 267 267 267 267 267 268 268 268 267 267 267 266 266 266 265 265 265 264 264 264 264 264 264 263 263 263 263 263 263 263 263 263 262 262 262 262 263 263 264 265 265 265 266 266 266 266 266 266 266 267 267 267 267 267 268 268 268 269 270 270 271 271 271 272 272 272 272 272 272 272 272 272 272 272 273 272 272 273 273 273 273 273 273 273
266 266 266 266 266 266 267 267 267 266 266 266 265 265 265 264 264 264 264 263 263 263 262 262 262 262 262 262 262 262 262 262 262 262 262 262 262 263 264 265 265 265 265 265 265 265 265 266 266 266 266 266 266 267 267 267 268 268 269 269 269 269 270 270 271 271 272 272 272 272 272 271 271 271 271 272 272 272 272 272 271 271 272 272 272
265 265 265 265 265 265 266 266 265 265 265 265 264 264 264 263 263 263 263 262 262 262 261 261 261 261 261 261 261 261 261 261 261 261 261 262 263 264 265 265 265 265 265 265 265 265 266 266 266 266 266 266 267 267 267 268 268 268 269 269 269 269 270 270 270 270 270 270 270 270 270 270 270 270 270 270 270 270 270 270 269 269 270 270 270
264 264 264 264 264 265 264 264 264 264 263 263 263 262 262 262 262 262 262 261 261 261 261 260 260 260 260 260 260 260 260 260 260 261 262 263 264 265 265 264 264 264 265 265 265 266 266 265 265 265 265 266 266 266 267 267 268 268 269 269 269 269 269 269 269 269 269 269 268 269 269 268 269 269 268 268 269 269 269 269 269 269 270 270 270
263 263 263 264 264 263 263 262 262 262 262 261 261 261 261 260 260 260 260 260 260 260 260 259 259 259 259 259 259 259 259 259 260 261 263 264 264 264 264 264 265 265 265 265 265 265 264 264 264 264 264 264 264 265 265 265 265 266 267 268 268 268 268 268 268 268 268 268 268 268 268 268 268 268 268 268 268 268 268 268 269 269 269 269 270
262 262 263 263 262 262 261 261 261 260 260 260 260 259 259 259 259 259 259 259 259 259 259 258 258 258 258 258 258 258 258 259 260 261 262 263 264 264 264 265 265 265 264 264 263 263 263 263 262 262 262 262 263 263 263 264 264 264 265 266 267 267 267 267 267 267 267 267 266 267 267 267 267 267 267 267 267 267 267 267 267 267 267 268 268
261 262 262 262 261 260 260 259 259 259 259 259 258 258 258 258 258 258 258 258 258 258 257 257 257 257 257 257 257 257 258 258 259 260 262 263 264 264 264 264 264 263 263 262 262 262 262 262 262 261 261 261 261 261 262 262 263 263 264 265 266 266 266 266 266 266 266 266 265 265 265 266 265 266 266 266 266 266 266 266 266 266 266 266 267
261 261 261 260 260 259 259 258 258 258 258 257 257 257 257 257 257 257 257 257 257 257 256 256 256 256 256 256 256 256 256 257 258 260 261 262 263 263 263 263 263 262 261 261 261 261 261 261 261 261 261 261 261 261 261 261 262 263 263 264 264 265 265 265 265 265 265 265 264 264 265 265 265 265 265 265 265 265 265 265 265 265 266 266 266
260 260 260 259 258 258 258 257 257 257 256 256 256 256 256 256 256 256 256 256 256 256 256 255 255 256 256 256 256 255 255 256 258 259 260 261 262 262 262 261 261 261 261 261 261 261 261 261 261 261 261 260 260 260 261 261 262 263 263 264 264 265 265 265 264 264 264 264 264 264 264 265 265 265 265 265 265 265 265 265 265 265 265 266 267
259 259 258 258 257 257 256 256 256 256 255 255 254 254 255 255 255 255 255 255 255 255 255 255 255 255 255 255 255 255 255 255 257 258 259 260 261 261 261 260 260 260 261 261 261 261 261 261 261 261 260 260 260 260 261 262 263 263 264 264 264 264 265 264 264 264 264 264 265 265 265 265 265 265 265 265 265 265 264 264 263 263 264 265 266
258 257 257 256 256 255 255 255 255 254 254 254 253 254 254 254 255 255 255 255 255 254 254 254 254 254 254 254 254 254 254 255 255 257 258 259 260 260 260 260 260 260 261 261 261 261 261 260 260 260 260 260 260 260 261 263 263 264 264 265 265 264 264 264 263 263 263 264 264 264 264 264 264 263 263 263 263 263 263 262 262 262 263 263 264
256 255 255 255 254 254 254 253 253 253 253 253 253 253 253 254 254 254 254 254 254 254 254 254 254 254 254 254 254 254 254 254 254 255 257 259 260 260 260 260 260 260 260 261 261 260 260 260 260 260 260 260 260 261 262 264 264 264 265 264 263 263 263 263 262 262 262 262 262 262 262 262 262 262 262 262 262 262 261 260 261 261 261 262 263
254 254 254 253 253 253 253 252 252 252 252 252 252 252 253 253 253 253 254 254 254 253 253 253 253 253 253 253 253 253 253 253 254 255 257 258 259 259 260 260 260 260 260 260 260 260 260 260 260 260 260 260 261 262 263 264 264 263 263 262 262 261 261 261 261 260 260 260 260 260 261 261 261 261 261 261 261 261 260 260 260 260 261 261 262
253 253 252 252 252 252 251 251 251 251 251 251 251 252 252 252 253 253 253 253 253 253 253 253 253 253 253 253 253 253 253 253 253 254 256 257 258 259 259 259 259 259 259 260 260 260 260 260 260 260 260 260 261 262 263 263 262 262 261 261 261 261 260 260 259 259 259 259 259 259 259 259 259 259 259 260 260 260 260 260 260 260 260 261 261
252 251 251 251 251 251 250 250 250 250 251 251 251 251 252 252 252 252 252 252 252 252 252 252 252 253 253 253 253 252 252 252 252 253 254 256 257 257 257 257 258 258 258 258 259 259 259 259 259 259 259 260 261 261 262 262 261 260 261 261 261 260 259 258 258 258 258 257 257 257 257 257 257 258 258 258 258 258 259 259 259 259 260 260 260
250 250 250 250 250 249 249 249 249 249 250 250 251 251 251 251 251 251 251 251 251 251 251 251 252 252 252 252 252 252 252 252 252 252 253 254 255 255 255 255 256 257 256 257 257 258 258 258 258 259 259 259 260 261 260 260 259 259 260 260 259 258 257 257 257 256 256 256 256 256 256 256 256 256 256 257 257 257 257 258 258 258 259 259 259
249 249 249 249 249 249 248 248 249 249 249 250 250 250 250 250 250 250 250 250 250 250 251 251 251 251 251 251 251 251 252 252 252 252 252 253 253 254 254 254 255 255 255 255 256 256 257 257 258 258 259 259 260 260 259 258 258 258 259 258 257 257 256 256 256 256 255 255 255 255 255 255 255 256 256 256 256 256 257 257 257 258 258 258 259
248 248 248 248 248 248 248 248 248 248 249 249 249 249 249 249 249 249 249 249 250 250 250 251 251 251 251 251 251 251 251 252 252 252 252 252 252 253 253 254 254 254 254 254 254 255 256 257 258 258 258 258 258 258 257 257 257 257 257 257 256 256 256 255 255 255 255 255 254 254 254 255 255 255 255 255 255 256 256 256 257 257 258 258 259
248 248 247 247 247 247 247 247 247 248 248 248 248 248 248 248 248 248 249 249 249 249 250 250 250 250 250 250 250 251 251 251 252 252 252 252 252 252 253 253 253 253 253 253 254 254 255 256 257 257 257 257 257 257 257 257 256 256 256 255 255 255 255 255 255 254 254 254 254 254 254 254 254 254 254 255 255 255 256 256 256 257 257 258 258
247 247 247 247 247 247 246 246 247 247 247 247 247 248 248 248 248 248 248 249 249 249 250 250 250 250 250 250 250 250 251 251 251 251 252 252 252 252 252 252 252 252 252 253 254 254 255 255 256 256 256 256 256 256 256 256 256 255 255 255 255 254 254 254 254 254 253 253 253 253 253 253 253 253 254 254 255 255 255 256 256 256 257 257 257
246 246 246 246 246 246 246 246 246 247 247 247 247 247 247 247 247 248 248 249 249 249 249 249 249 249 249 250 250 250 250 251 251 251 251 252 252 252 252 252 252 252 252 253 253 254 255 255 255 255 255 255 255 255 255 255 255 255 254 254 254 254 253 253 253 253 253 253 252 252 252 252 252 253 253 254 254 255 255 255 255 256 256 257 257
246 246 246 246 245 245 246 246 246 246 247 247 246 246 246 247 247 247 248 248 248 248 248 249 249 249 249 249 250 250 250 250 250 250 251 251 251 251 251 251 252 252 252 253 254 254 255 255 255 255 255 255 254 254 254 254 254 253 253 253 253 253 253 252 252 252 252 252 251 251 252 252 252 252 252 253 253 254 254 254 255 255 256 256 256
245 245 245 245 245 245 245 246 246 246 246 246 246 246 246 246 247 247 247 247 247 248 248 248 248 249 249 249 249 249 249 249 250 250 250 251 251 251 251 251 252 252 253 253 254 254 254 254 254 254 254 254 253 253 253 253 253 252 252 252 252 252 252 251 251 251 251 251 250 250 251 251 251 251 252 252 252 253 253 254 254 254 255 255 255
244 244 244 244 245 245 245 245 246 246 246 245 245 245 245 246 246 246 246 247 247 247 248 248 248 248 248 248 248 249 249 249 249 250 250 250 250 250 251 251 251 252 253 253 254 254 254 253 253 253 253 252 252 252 252 252 251 251 251 251 251 251 250 250 250 250 250 250 250 250 250 250 250 251 251 251 252 252 253 253 253 254 254 254 254
244 244 244 244 244 245 245 245 245 245 245 245 245 245 245 245 245 246 246 246 246 247 247 247 247 248 248 248 248 248 248 248 249 249 249 249 249 250 250 250 251 252 252 253 253 253 252 252 252 252 252 251 251 251 251 250 250 250 250 250 250 250 249 249 249 249 249 249 249 249 250 250 250 250 251 251 251 252 252 253 253 253 253 253 253
244 244 244 244 244 244 245 245 245 245 245 245 245 245 245 245 245 245 245 245 246 246 246 246 246 247 247 247 247 247 248 248 248 248 248 248 249 249 250 250 251 252 252 252 252 252 251 251 251 251 250 250 250 250 250 250 249 249 249 249 249 249 249 249 249 249 249 249 249 249 249 249 250 250 250 250 251 251 252 252 252 252 253 253 253
244 244 244 244 244 244 244 244 244 244 244 244 245 245 244 244 244 244 244 245 245 245 245 245 245 245 246 246 246 247 247 247 247 247 248 248 248 249 249 250 251 251 251 251 251 251 250 250 250 250 249 249 249 249 249 249 249 248 248 248 248 248 248 248 248 248 248 248 248 249 249 249 249 249 250 250 251 251 251 252 252 252 252 252 253
244 244 244 244 244 244 244 244 244 244 244 244 244 244 244 244 244 244 244 244 244 244 244 244 244 244 245 245 246 246 246 247 247 247 247 247 248 248 248 249 250 250 250 250 250 250 250 249 249 249 249 249 249 248 248 248 248 248 248 248 248 248 248 248 248 248 248 248 248 248 249 249 249 249 249 250 250 250 251 251 251 252 252 252 253
244 244 244 244 244 244 244 244 244 244 244 244 244 244 244 244 244 244 244 243 243 243 243 244 244 244 244 244 245 245 245 246 246 246 247 247 247 247 247 248 249 249 249 249 249 249 249 249 249 249 248 248 248 248 248 247 247 247 247 247 247 247 247 247 247 248 248 248 248 248 248 248 249 249 249 249 250 250 250 251 251 251 252 252 253
244 244 244 244 244 244 244 244 244 244 244 244 244 244 244 243 243 243 243 243 243 243 243 243 244 244 244 244 244 245 245 245 246 246 246 246 246 246 246 246 247 247 247 248 248 248 248 248 248 248 248 248 247 247 247 247 247 247 247 247 247 247 247 247 247 247 247 247 247 248 248 248 248 248 249 249 249 250 250 250 251 251 252 252 253
244 244 244 244 244 244 244 244 244 244 244 244 244 244 243 243 243 243 243 243 243 243 243 243 243 244 244 244 244 244 245 245 245 245 245 245 245 245 245 245 246 246 246 247 247 247 247 247 247 247 247 247 247 247 247 247 247 247 247 247 247 247 247 247 247 247 247 247 247 247 247 248 248 248 248 249 249 249 250 250 251 251 251 252 253
244 244 244 244 244 244 244 244 244 244 244 244 244 244 243 243 243 243 243 243 243 243 243 243 243 243 243 243 244 244 244 244 244 244 244 245 245 245 245 245 245 245 245 246 246 246 246 246 246 246 246 246 247 246 246 246 246 246 246 246 246 247 247 247 247 247 247 246 247 247 247 247 248 248 248 248 249 249 249 250 250 250 251 251 252
244 244 244 244 244 244 244 244 244 244 244 244 244 243 243 243 243 243 243 243 243 243 243 243 243 243 243 243 244 244 244 244 244 244 244 244 244 244 244 245 245 245 245 245 245 245 246 246 246 246 246 246 246 246 246 246 246 246 246 246 246 246 246 246 246 246 246 246 246 247 247 247 248 248 248 248 249 249 249 250 250 250 251 251 252
244 244 244 244 244 244 244 244 244 244 244 243 243 243 243 243 243 243 243 243 243 243 243 243 243 243 243 243 243 244 244 244 243 243 244 244 244 244 244 244 244 245 245 245 245 245 245 245 245 246 246 246 246 246 246 246 246 246 246 246 246 246 246 246 246 246 246 246 246 247 247 247 248 248 248 248 249 249 249 249 250 250 250 251 252
244 244 244 244 244 244 244 244 244 244 243 243 243 243 243 243 243 243 243 243 243 243 243 243 243 243 243 243 243 243 243 243 243 243 243 244 244 244 244 244 244 244 244 245 245 245 245 245 245 245 246 246 246 246 246 246 246 246 246 246 246 246 246 246 246 246 246 246 246 247 247 247 248 248 248 248 249 249 249 249 249 249 250 250 251
244 244 244 244 244 244 244 244 244 244 244 243 243 243 243 243 243 243 243 243 243 243 242 243 243 243 243 243 243 243 243 243 243 243 243 244 244 244 244 244 244 244 245 245 245 245 245 245 245 246 246 246 246 246 246 246 246 246 246 246 246 246 246 246 246 246 246 247 247 247 247 248 248 248 248 248 248 248 248 248 248 249 249 250 250
244 244 244 244 244 244 244 244 244 244 243 243 243 243 243 243 243 243 243 243 243 242 242 242 243 243 243 243 243 243 243 243 243 243 244 244 244 244 244 245 245 245 245 245 245 245 245 245 246 246 246 246 246 246 246 246 246 246 246 246 246 246 246 247 247 247 247 247 247 247 248 248 248 248 248 248 248 248 248 248 248 248 249 249 250
244 244 244 244 244 244 244 244 244 243 243 243 243 243 243 243 243 243 243 243 242 242 242 243 243 243 243 243 244 244 244 244 244 244 244 244 244 244 245 245 245 245 246 246 246 246 246 246 246 246 247 247 247 247 247 247 247 246 246 246 246 246 247 247 247 248 248 247 247 248 248 248 248 248 248 248 248 248 248 248 248 248 248 249 249
244 244 244 244 244 244 244 244 243 243 243 243 243 243 243 243 243 243 242 242 242 242 243 243 243 243 243 243 243 244 244 244 244 244 244 244 244 244 245 245 245 245 246 246 246 246 246 246 246 246 247 247 247 247 247 247 247 247 247 247 247 247 247 248 248 248 248 248 248 248 248 248 248 248 248 248 248 248 248 248 248 248 248 248 249
244 244 244 244 244 244 244 243 243 243 243 243 242 242 243 243 243 242 242 242 242 243 243 243 243 243 243 243 243 243 243 244 244 244 244 244 244 245 245 245 245 245 246 246 246 246 246 246 246 246 246 247 247 247 247 247 247 247 247 247 247 247 248 248 248 248 248 248 248 248 248 248 248 248 248 248 248 248 247 247 247 248 248 248 248
244 244 244 244 244 244 244 243 243 243 243 243 243 242 242 243 243 243 243 243 243 243 243 243 243 243 243 243 243 243 243 243 244 244 244 244 244 245 245 245 245 245 245 246 246 246 246 246 246 246 246 247 247 247 247 247 248 248 248 248 248 248 248 248 248 248 248 248 248 248 248 248 248 248 248 248 248 248 247 247 247 248 248 248 248
245 245 245 244 244 244 244 243 243 243 243 243 243 243 243 243 243 243 243 243 243 243 243 243 243 243 243 243 243 243 243 244 244 244 244 244 244 245 245 245 245 245 245 246 246 246 246 246 247 247 247 247 247 247 247 248 248 248 248 248 248 248 248 248 248 248 248 248 248 248 248 248 248 248 248 248 248 247 247 247 247 248 248 248 248
245 245 245 245 244 244 244 244 243 243 243 243 243 243 243 243 243 244 244 244 244 244 243 243 243 243 243 243 244 244 244 244 244 244 244 245 245 245 245 245 245 245 246 246 246 247 247 247 247 247 247 247 247 247 247 247 248 248 248 248 248 248 248 248 248 248 248 248 248 248 247 247 247 248 248 248 247 247 247 247 247 247 248 248 248
245 245 245 245 245 244 244 244 244 244 244 243 243 243 244 244 244 244 244 244 244 244 244 243 243 243 243 244 244 244 244 244 244 244 245 245 245 245 245 246 246 246 246 246 247 247 247 247 247 247 247 247 247 247 247 247 247 247 247 248 248 248 248 248 248 248 248 248 248 247 247 247 247 247 247 247 247 247 247 247 247 248 248 248 249
245 245 245 245 245 245 245 245 244 244 244 244 244 244 244 244 244 244 244 244 244 244 244 244 244 244 244 244 244 244 244 244 244 245 245 245 245 245 246 246 246 246 247 247 247 247 247 247 247 247 247 247 247 247 247 247 247 247 247 247 248 248 248 248 248 248 248 248 247 247 247 247 247 247 247 247 247 247 247 247 248 248 248 249 249
Wind_Speed
19 19 19 20 21 21 23 23 22 21 22 23 26 27 24 23 22 22 23 25 26 26 26 26 25 26 25 24 23 22 22 22 21 21 21 20 20 20 20 20 20 20 20 20 20 19 19 19 19 18 17 18 18 18 17 17 16 15 14 13 13 12 10 10 7 10 20 23 19 18 16 15 18 20 19 22 24 24 25 26 26 26 27 28 29
17 15 16 17 17 18 19 20 19 19 20 22 25 26 24 22 21 22 23 25 26 27 27 26 26 26 26 24 24 23 22 21 21 21 21 20 20 20 21 21 22 22 21 21 22 21 22 22 22 21 20 20 21 21 20 20 19 19 19 18 18 18 14 11 10 9 15 22 22 19 16 13 15 18 16 17 21 22 22 24 25 25 25 26 27
17 15 15 16 16 16 17 16 15 16 17 19 22 22 21 20 20 22 23 24 25 26 27 26 27 27 26 26 26 25 23 21 21 21 20 19 20 20 20 20 20 21 22 22 23 23 23 24 24 23 22 23 23 22 21 21 19 19 21 20 19 20 19 14 13 11 13 20 23 21 17 14 14 17 17 16 18 20 20 21 23 24 25 26 28
18 17 16 16 17 17 16 14 14 16 17 17 18 17 16 16 17 19 21 22 24 25 26 26 27 27 27 27 27 26 25 23 22 22 21 21 22 21 20 20 20 20 21 22 22 23 23 23 23 22 21 22 23 22 20 19 19 18 19 21 19 19 20 17 15 15 15 18 24 24 20 17 17 19 20 20 21 22 23 23 24 25 26 28 30
19 19 18 19 21 20 17 16 16 16 15 15 14 13 13 13 14 16 18 19 21 23 24 25 27 27 27 27 27 26 24 23 23 23 23 24 24 22 21 21 21 21 21 22 22 22 22 22 22 21 20 21 21 20 19 18 18 18 19 20 20 19 20 19 18 18 17 18 23 26 24 21 21 21 21 22 23 24 25 26 27 28 29 30 32
20 21 22 23 24 23 21 20 18 14 11 10 9 9 10 11 13 14 14 16 18 19 21 24 26 27 27 27 26 25 24 24 24 25 24 24 24 24 23 23 22 22 22 22 22 21 22 22 22 21 20 21 21 21 21 20 19 19 19 19 19 19 19 20 19 19 19 20 21 24 25 24 23 22 22 22 22 24 25 27 26 27 28 30 31
22 22 24 25 25 24 23 21 16 11 9 8 7 8 9 10 12 12 13 15 17 19 22 24 25 25 26 26 26 25 25 25 25 25 25 25 25 25 24 24 24 23 23 22 21 20 21 21 20 20 20 21 23 23 23 23 21 20 20 19 19 19 18 18 17 16 16 17 17 18 21 21 19 18 17 16 17 19 20 21 22 22 23 24 27
23 24 24 24 24 22 19 16 13 10 9 8 9 9 10 11 13 15 17 20 21 22 23 23 24 24 24 25 25 24 25 25 25 25 26 26 25 25 24 24 23 23 22 22 21 22 22 22 22 22 22 22 22 24 24 24 24 23 22 22 22 22 22 20 19 17 15 14 13 12 14 15 14 13 13 12 12 12 13 16 19 20 21 21 23
23 23 23 23 21 17 13 12 11 11 11 11 13 14 15 17 18 20 22 23 24 24 23 23 23 24 24 24 24 24 24 25 25 26 26 25 25 24 24 23 23 24 24 24 24 23 22 21 21 21 21 20 20 21 22 22 22 23 22 22 22 23 21 19 17 15 13 11 11 10 11 12 14 14 13 12 12 14 17 20 22 25 27 27 27
21 22 23 21 17 13 13 14 14 15 16 16 18 19 20 22 23 25 25 26 27 26 25 25 25 25 26 26 26 26 26 26 26 24 23 23 24 24 25 25 24 25 25 24 22 20 18 18 20 20 20 20 19 19 20 19 19 19 18 17 15 14 13 11 10 10 9 9 10 10 9 10 13 15 15 15 16 17 19 21 21 24 26 25 26
20 22 22 17 14 15 17 18 18 19 20 21 22 22 23 24 24 25 25 26 27 27 27 28 27 27 28 27 27 26 26 26 25 24 23 23 24 24 25 25 25 23 22 20 20 20 20 22 24 25 26 27 26 26 26 24 22 20 19 17 14 11 9 9 8 9 9 8 9 9 8 9 12 14 15 17 17 17 18 19 19 20 20 17 16
21 22 18 14 15 17 19 19 20 21 22 23 24 24 25 25 25 24 25 25 25 26 27 28 28 28 26 25 26 26 26 26 24 24 25 24 24 24 24 23 23 20 19 20 21 23 24 26 28 28 29 30 30 30 31 31 29 27 24 20 17 14 13 11 10 10 10 9 9 10 10 11 13 15 17 18 19 19 20 21 21 21 21 19 17
21 19 15 13 16 18 19 21 23 24 25 26 27 27 27 27 26 25 25 25 25 26 27 27 27 26 24 24 26 26 27 26 24 24 25 25 24 24 23 23 22 21 22 23 24 25 27 28 28 28 28 27 27 27 27 29 30 30 27 23 21 19 18 17 15 13 13 12 12 14 15 15 16 19 21 20 20 22 23 24 25 25 24 23 23
19 15 13 14 17 19 21 23 25 26 28 29 29 29 29 29 28 26 26 26 26 26 26 25 25 24 23 24 26 27 28 27 25 25 25 25 25 24 24 24 24 25 25 25 26 26 26 25 25 26 27 26 26 26 25 25 25 25 25 24 24 22 21 21 19 16 15 14 14 16 17 17 18 21 22 23 24 25 26 27 28 27 27 28 29
16 13 14 16 18 21 23 25 26 28 30 30 30 30 29 28 27 26 25 25 25 25 25 25 24 24 24 25 26 28 28 26 24 25 25 25 26 25 25 26 26 27 27 25 24 23 23 23 24 25 27 27 27 26 25 25 25 25 24 23 24 24 23 20 17 15 14 13 14 16 17 17 19 20 21 22 23 23 22 23 24 24 25 26 26
14 14 17 19 20 23 24 26 27 29 30 29 29 29 27 25 25 25 25 24 24 25 25 24 24 24 25 25 26 28 28 25 24 25 26 25 25 25 25 25 25 25 24 23 22 22 22 23 23 24 26 28 28 25 23 24 25 25 25 25 26 25 22 17 12 11 12 14 14 15 16 17 17 17 18 19 19 19 19 21 24 24 22 19 18
13 16 19 20 22 23 24 25 26 28 28 28 28 27 24 24 24 24 24 24 25 25 25 24 24 24 25 26 26 27 28 26 24 25 25 24 24 24 24 24 24 23 23 23 23 21 21 20 20 23 26 27 27 24 22 23 24 25 26 26 23 19 15 11 9 9 10 11 12 13 15 17 19 20 22 22 22 23 22 21 24 23 18 13 12
13 17 19 20 21 23 23 24 25 26 26 26 26 26 25 25 25 24 24 25 25 24 24 24 25 25 25 26 26 26 28 27 25 25 24 23 22 23 23 23 23 23 23 23 21 20 20 20 21 23 24 25 24 22 21 22 24 25 24 19 12 7 7 7 7 8 9 10 12 14 16 19 22 24 26 27 28 28 24 21 23 22 17 13 13
16 19 20 21 22 23 24 25 25 25 26 26 26 26 26 26 26 25 25 24 24 24 24 25 27 26 25 26 26 25 26 27 26 24 23 23 22 22 23 22 21 22 22 21 21 21 21 20 20 20 21 21 19 18 19 17 13 10 7 5 1 4 5 5 5 6 9 12 14 17 19 21 23 26 28 29 30 30 28 25 25 23 19 17 17
20 22 22 23 24 24 24 25 25 25 26 27 26 26 26 27 26 25 24 23 23 24 25 26 27 26 25 25 25 25 25 27 26 23 23 23 21 22 22 21 21 22 22 22 22 21 19 18 16 15 15 15 15 17 16 10 2 3 5 5 7 7 5 4 7 9 13 16 18 20 22 23 24 25 27 29 29 29 28 26 25 23 21 21 21
24 24 25 24 24 24 24 25 25 25 26 26 26 26 25 24 23 23 23 23 24 26 26 26 26 26 25 24 24 25 25 27 26 24 23 23 22 22 22 22 22 23 22 21 19 16 14 14 13 12 12 13 15 16 12 7 5 5 7 8 8 7 7 10 12 14 17 19 20 21 22 22 23 24 25 26 26 25 24 23 22 22 21 22 22
25 25 24 23 23 24 26 26 26 26 25 24 25 25 23 22 23 24 25 25 25 26 26 26 25 25 24 23 24 26 26 25 24 23 22 23 25 24 22 21 21 21 20 20 18 16 15 13 12 12 13 13 13 11 9 10 9 7 9 10 10 9 12 14 15 16 17 18 19 20 20 20 22 23 23 24 23 23 23 23 24 24 24 25 25
25 23 22 23 25 27 28 28 26 25 24 24 24 24 24 24 25 25 24 24 25 25 25 25 24 23 23 23 24 25 25 24 24 23 23 23 25 25 24 21 20 19 19 19 19 19 18 15 13 12 10 10 10 10 12 12 11 11 13 15 14 13 15 16 16 16 17 17 18 19 18 18 20 21 22 22 22 23 24 24 26 26 27 29 29
23 22 22 24 27 29 29 28 26 23 23 23 24 25 25 26 25 24 24 24 24 23 24 24 22 21 21 23 24 25 26 26 25 24 24 23 23 25 25 22 19 19 19 19 19 19 18 17 15 12 10 11 14 15 16 16 15 15 17 18 17 18 18 18 17 17 18 18 18 18 18 18 19 19 20 21 22 23 24 25 25 24 25 26 27
22 22 24 26 29 29 28 26 24 22 22 23 24 24 25 25 24 24 24 24 23 23 23 21 19 19 20 22 24 26 27 27 26 24 23 22 22 22 23 22 21 20 20 21 21 20 19 18 16 13 13 14 16 18 18 18 17 18 18 17 17 18 17 17 18 18 18 18 18 18 18 18 18 19 21 22 23 24 24 25 25 24 24 25 25
22 24 26 28 29 29 27 25 22 22 22 23 23 23 24 24 24 24 23 23 22 22 20 18 18 19 20 22 24 25 25 25 24 22 21 21 21 21 21 22 22 22 22 22 20 19 18 17 14 14 14 13 13 14 15 16 17 18 18 17 16 16 16 16 17 17 17 18 17 17 18 18 20 21 22 22 23 22 22 23 24 24 24 24 26
25 26 27 28 29 27 24 23 22 23 23 23 22 23 24 24 24 23 22 22 21 20 19 18 18 19 20 22 23 22 22 22 22 21 22 22 22 21 22 24 25 26 26 24 20 19 18 14 12 12 11 11 11 12 13 14 16 16 16 16 15 14 14 14 15 15 17 18 18 18 19 20 22 23 22 22 22 21 20 22 23 23 22 22 23
26 27 27 27 27 24 22 22 22 23 22 22 22 24 24 23 23 22 21 21 21 21 21 20 20 20 20 21 21 20 19 19 20 21 22 22 22 22 23 25 26 27 26 25 24 22 18 13 11 11 11 11 12 12 13 14 15 15 15 14 13 13 14 15 15 16 17 18 19 19 21 22 23 23 23 23 22 21 21 22 22 22 21 20 19
25 25 25 25 24 22 21 22 22 22 21 21 23 23 22 21 22 21 21 21 21 22 22 21 21 21 20 20 20 19 18 19 20 21 22 21 22 22 22 23 24 24 24 24 23 20 15 10 9 9 10 11 12 12 14 14 14 14 14 14 14 15 16 16 17 18 18 18 19 20 21 22 22 22 22 22 22 22 22 21 21 21 21 20 18
24 24 24 23 22 21 21 22 21 21 21 23 24 24 22 20 20 20 21 21 20 20 20 20 21 21 21 20 19 19 19 20 21 21 21 20 21 21 22 22 22 23 24 20 14 9 6 5 6 7 7 9 10 10 12 13 14 15 15 15 16 17 17 17 17 18 18 19 19 21 21 21 21 20 20 20 21 22 21 20 21 21 20 19 19
24 23 23 23 22 21 21 21 20 21 23 24 24 23 23 22 20 20 20 21 21 20 20 20 20 20 20 20 20 19 20 20 20 20 20 21 21 21 23 23 23 24 22 14 6 4 4 5 6 6 7 8 8 9 11 12 14 16 17 17 18 17 17 18 19 19 20 20 20 20 19 19 19 20 19 19 20 20 21 22 22 21 20 20 19
23 23 23 22 21 21 21 20 20 22 24 24 23 22 22 22 22 22 21 20 20 20 19 20 20 19 20 20 21 20 19 19 20 20 20 21 22 21 22 23 22 20 16 7 3 4 4 4 5 6 7 8 9 10 11 13 15 16 17 18 19 18 18 19 20 19 20 20 20 20 19 19 20 20 19 19 19 19 21 22 22 21 21 21 20
23 23 22 21 21 21 21 21 22 23 23 23 22 21 20 21 21 22 23 22 21 20 19 19 19 20 20 19 19 19 19 19 20 20 20 21 21 20 20 20 16 11 7 6 6 6 6 6 6 7 8 9 11 12 13 14 16 17 18 19 20 20 21 20 19 19 20 19 19 19 20 20 20 20 20 19 19 19 20 21 21 21 21 20 20
22 22 21 21 21 21 21 21 23 23 22 21 20 20 21 21 20 21 22 22 23 23 23 22 21 20 20 19 18 19 19 19 19 19 20 20 19 18 17 16 13 11 11 10 10 9 8 8 9 10 11 12 13 14 15 17 18 19 20 20 21 21 21 20 19 19 20 19 19 19 20 20 19 19 19 19 19 19 20 20 20 20 19 19 20
22 20 20 21 20 20 21 22 22 22 21 21 20 21 21 21 20 20 20 20 21 23 25 26 25 23 20 20 20 19 19 19 19 19 19 18 18 17 16 15 15 15 14 13 12 11 10 11 12 12 13 14 14 15 17 20 21 21 20 20 21 21 21 21 20 20 19 19 19 20 20 19 19 19 19 19 19 19 19 20 20 20 19 19 19
22 20 20 21 20 20 21 22 22 21 20 20 21 22 22 21 20 20 20 20 20 21 23 26 27 25 23 22 21 20 20 19 18 18 18 17 17 17 17 17 18 17 16 15 14 12 12 12 13 14 14 15 16 18 20 22 23 22 20 20 21 21 21 21 21 20 19 19 20 20 20 19 19 19 19 19 19 19 19 20 20 19 19 18 18
21 20 20 21 20 20 21 22 21 21 20 21 22 23 22 22 21 21 21 21 21 21 23 25 26 25 26 25 24 22 21 19 19 19 19 18 18 19 18 17 17 17 17 16 16 15 14 14 15 16 17 18 20 22 23 24 23 22 20 19 20 21 21 21 20 19 20 21 21 20 20 19 18 18 18 19 19 19 19 19 19 19 19 18 18
19 18 19 20 20 20 21 22 21 21 22 22 23 23 22 22 21 21 22 22 22 22 23 24 24 24 25 26 24 23 22 21 22 23 23 22 21 20 19 17 16 16 17 17 17 17 18 18 18 19 20 21 23 24 24 24 23 21 20 20 21 21 22 21 21 20 20 21 20 20 19 19 18 18 18 18 19 19 20 19 19 19 20 20 19
18 17 18 19 19 20 21 21 21 22 22 23 23 23 22 22 22 22 22 23 23 23 23 23 23 23 24 25 24 23 22 21 22 24 24 23 22 21 19 18 17 17 17 18 18 18 19 19 20 21 22 23 24 24 24 23 22 21 20 21 21 22 22 22 22 22 21 21 20 20 19 18 17 17 18 18 19 19 20 20 19 19 20 21 20
17 18 19 19 19 20 20 21 21 22 22 23 22 22 22 22 21 22 22 22 22 22 22 22 23 24 25 24 23 21 21 21 22 23 23 22 22 21 20 19 19 19 19 19 19 19 20 20 21 22 23 24 24 24 23 23 22 21 21 21 21 22 22 22 22 21 21 20 20 19 18 17 17 18 18 18 18 18 18 19 19 19 19 19 20
16 18 19 19 19 20 20 21 22 22 22 22 22 22 22 22 21 22 22 22 22 22 22 23 24 24 25 23 20 19 20 20 21 22 22 22 22 22 21 20 20 19 20 20 20 20 21 22 22 23 24 24 24 23 23 22 21 21 21 21 21 22 23 22 21 21 20 19 18 17 17 17 17 18 18 18 18 18 18 19 19 19 19 19 19
16 18 18 18 19 19 20 21 22 22 23 23 22 22 22 22 21 22 22 22 22 22 22 24 25 25 25 23 21 20 20 20 21 22 22 22 22 22 22 21 20 20 20 20 20 20 21 22 23 23 23 23 23 22 22 21 20 20 20 20 21 21 22 22 21 20 18 18 17 17 17 18 18 18 18 18 18 19 20 20 20 19 19 19 18
16 17 17 18 19 19 20 21 22 22 23 23 22 22 22 22 22 22 22 23 23 22 22 24 25 26 25 24 23 22 22 22 22 22 23 23 23 23 22 22 21 20 20 19 19 19 20 21 22 22 22 22 21 21 20 19 19 19 19 19 20 20 21 21 20 19 17 18 18 18 18 19 19 19 19 19 19 20 21 20 20 19 19 19 19
16 17 17 18 19 19 20 21 22 23 23 22 23 23 22 22 22 22 22 23 23 22 22 23 24 25 25 25 24 24 23 24 24 23 24 24 24 23 23 22 21 21 20 19 18 18 19 20 21 21 21 20 20 19 19 18 17 17 18 18 18 19 20 19 19 17 17 18 19 19 19 20 19 20 20 20 21 21 21 20 20 19 19 19 19
16 17 18 18 19 20 21 22 22 22 22 23 23 23 23 22 22 22 22 22 23 23 23 24 24 24 25 25 25 25 25 25 25 25 24 24 24 24 23 23 22 22 21 20 19 19 19 20 21 22 22 21 20 19 18 17 17 16 16 17 18 19 19 18 17 17 17 18 19 20 20 21 21 21 22 22 21 21 21 21 21 20 20 20 19
16 17 18 19 20 21 21 22 22 22 22 22 23 23 23 23 23 22 22 23 23 23 24 24 24 25 25 25 26 26 26 26 26 25 25 25 25 24 24 24 24 23 23 22 22 21 21 21 21 22 22 21 20 19 18 17 16 16 15 16 17 18 18 17 17 17 18 18 19 20 21 22 22 23 23 23 22 21 21 22 21 21 20 20 20
17 17 18 19 19 20 21 22 22 22 22 23 23 23 23 23 23 23 23 23 23 24 24 25 25 25 26 26 26 26 26 26 26 25 25 26 25 25 25 25 25 24 24 24 23 22 22 21 21 21 21 20 19 19 18 17 16 16 16 16 16 17 17 17 17 18 19 19 20 21 22 23 24 25 25 24 23 23 22 22 22 21 21 21 21
17 18 18 19 19 20 21 22 22 22 23 23 23 23 23 24 24 24 24 24 25 25 25 26 26 26 26 26 26 26 26 26 26 26 26 26 26 26 26 25 25 25 25 24 23 22 21 21 20 20 20 20 19 19 19 18 17 17 17 17 17 17 17 17 18 19 20 20 21 22 23 24 25 25 25 24 23 23 23 23 22 22 22 21 21
17 18 18 19 20 20 21 21 22 22 23 23 24 24 24 24 24 24 25 25 26 26 26 26 26 26 26 26 26 26 26 26 26 26 26 26 26 26 26 25 25 25 25 25 24 23 22 21 20 20 20 20 20 20 19 19 19 19 19 19 18 18 18 18 19 20 20 22 23 24 23 23 24 24 24 25 24 24 23 23 23 23 22 21 21
16 17 18 19 19 20 20 21 21 22 23 23 23 24 24 24 24 25 25 26 26 27 27 26 26 26 26 26 26 26 26 26 26 26 27 27 27 27 26 26 26 26 25 25 25 24 23 22 21 21 20 20 20 20 20 20 20 20 20 20 19 19 20 20 21 22 23 24 24 23 22 22 23 24 24 24 23 23 22 22 22 21 20 19 20
16 16 17 18 19 19 20 21 21 22 23 23 23 23 23 24 24 25 25 26 26 27 27 27 26 26 26 26 25 26 26 26 26 26 27 27 27 27 27 27 27 26 26 25 25 24 24 23 22 22 22 22 21 21 21 21 20 20 20 20 20 21 21 22 23 23 23 22 20 20 20 21 22 23 23 23 22 21 21 20 19 19 19 19 19
Wind_Direction
22 17 13 10 6 4 2 359 356 355 355 357 357 356 353 351 352 354 354 355 356 356 356 357 354 352 351 351 351 349 345 343 341 337 334 332 329 327 326 324 322 321 318 314 313 313 312 310 308 306 304 301 297 295 295 293 292 288 285 288 283 279 284 278 274 278 274 272 274 275 276 272 269 270 270 270 271 271 272 274 275 276 277 277 277
22 17 13 8 3 360 355 350 346 345 346 349 350 349 346 344 344 347 348 349 349 349 350 351 350 350 350 350 349 349 347 345 344 342 340 336 331 328 325 324 322 321 320 318 315 314 312 310 309 308 306 303 300 299 299 297 298 295 290 293 292 287 290 288 279 282 281 279 280 282 282 278 273 274 276 276 276 276 276 274 273 274 274 275 276
22 17 12 7 4 359 352 346 341 341 343 344 343 341 337 335 337 341 344 344 344 345 345 346 345 346 346 346 346 345 345 344 343 343 343 340 335 332 328 325 323 321 319 318 317 315 314 311 310 310 309 306 302 301 302 300 299 298 293 293 293 289 288 285 275 274 282 284 284 284 285 282 276 275 277 277 275 276 278 276 274 273 272 272 273
22 19 15 8 4 357 348 342 339 338 340 339 337 334 329 326 328 332 333 335 337 339 340 341 342 343 342 342 341 341 341 340 339 340 340 337 335 333 329 325 323 322 320 318 318 317 316 314 312 312 311 307 304 303 304 301 298 296 293 290 288 286 285 282 273 269 274 280 282 283 283 282 280 279 281 282 280 278 279 279 277 276 274 273 273
16 13 10 3 0 357 349 342 338 334 333 332 330 326 326 327 327 326 326 326 329 331 333 335 337 338 338 336 335 335 335 333 332 333 333 333 332 328 326 325 323 323 322 320 320 319 317 315 313 315 314 309 308 306 304 303 300 297 294 290 288 285 281 278 272 268 266 270 277 281 282 283 283 283 284 286 287 286 285 284 282 281 280 277 275
5 1 358 354 351 350 347 343 338 334 333 334 330 326 328 330 331 331 329 328 327 327 328 329 330 330 329 328 328 328 328 327 325 326 326 326 326 324 324 324 323 322 321 319 319 317 316 315 313 314 313 309 307 307 304 303 301 297 294 292 291 289 284 278 273 268 263 262 270 278 282 284 285 285 285 287 288 290 291 291 289 286 284 282 280
357 353 350 347 345 344 343 340 335 334 338 340 337 334 333 332 334 337 335 333 332 330 328 326 325 323 320 319 320 321 321 321 321 322 322 321 321 322 322 320 318 318 317 315 315 314 311 310 308 307 306 303 302 302 302 300 299 297 293 290 291 290 288 283 278 272 266 263 267 274 282 287 287 287 290 292 291 289 290 293 294 292 290 288 286
350 347 345 343 341 340 339 336 334 337 339 339 339 338 338 336 335 333 332 332 332 331 329 327 323 320 317 317 317 317 317 318 318 319 318 318 319 319 317 315 314 312 311 309 308 307 304 302 301 300 298 298 298 298 297 295 293 292 290 289 288 286 285 281 277 274 268 266 270 275 283 292 294 297 304 309 307 301 298 302 304 302 300 295 292
345 344 342 342 342 341 339 340 342 342 339 338 339 337 335 334 332 330 331 332 331 330 329 327 323 321 320 318 316 315 313 313 314 315 314 314 314 313 311 310 308 306 304 304 303 303 303 303 304 303 300 298 299 298 296 293 289 288 289 288 282 277 274 271 268 268 267 267 272 278 284 290 294 300 305 306 303 302 303 304 302 299 297 295 291
343 344 344 345 345 343 343 346 345 342 340 339 338 336 334 334 332 331 331 330 329 329 326 324 324 323 320 317 314 312 311 310 311 311 308 307 307 307 306 305 303 302 299 299 302 304 307 309 309 308 305 303 303 303 304 305 304 300 301 303 296 282 275 274 272 272 272 270 274 278 280 284 289 294 297 296 296 299 301 301 298 296 296 294 290
344 344 345 345 343 343 345 344 342 341 340 338 337 337 336 335 334 332 330 328 327 326 323 322 323 321 319 317 315 314 312 312 311 308 304 303 303 303 302 300 298 296 295 298 303 305 304 304 304 303 302 302 301 300 300 303 307 307 305 305 304 300 300 303 299 292 284 277 278 279 278 280 286 291 294 297 299 301 301 299 298 298 296 292 291
342 341 342 340 339 343 345 343 342 341 340 338 336 335 333 333 333 331 328 327 326 323 322 322 321 321 321 319 316 316 314 313 312 308 306 304 303 302 300 297 295 295 298 303 305 305 305 305 304 302 300 300 299 297 295 293 294 296 297 294 289 287 288 290 295 296 292 291 293 291 288 290 292 292 292 295 298 298 296 293 290 289 287 285 285
339 335 335 338 341 345 345 343 342 339 337 335 332 331 330 329 328 327 324 324 324 322 321 321 320 321 320 318 316 315 314 314 313 309 306 305 304 304 303 300 299 301 305 306 304 304 304 306 305 303 303 304 303 300 297 293 290 289 289 285 281 280 280 280 282 279 277 282 285 283 283 284 284 285 287 290 293 293 291 287 284 281 278 277 277
334 330 332 340 342 343 342 340 339 336 333 330 327 326 325 324 323 323 322 322 322 322 321 321 319 318 317 316 316 313 313 314 312 308 306 305 305 305 305 304 303 303 304 302 301 300 301 303 303 304 306 307 307 306 304 301 296 292 288 281 274 274 276 277 276 271 270 275 275 276 280 282 282 286 290 291 288 286 283 282 282 281 278 277 276
331 331 336 341 340 340 340 338 335 332 330 327 324 323 322 321 321 321 321 320 320 320 320 319 318 317 317 316 314 312 313 314 312 308 307 307 306 305 305 304 302 301 300 299 298 299 301 302 301 302 305 306 306 305 303 300 297 294 289 280 272 270 271 271 269 269 275 280 279 281 285 287 287 289 291 291 289 289 289 289 291 294 293 289 283
332 336 339 340 339 338 337 335 332 330 328 325 323 322 321 320 320 320 319 318 318 319 318 317 317 316 317 317 315 314 314 315 313 310 309 308 307 306 305 302 300 299 298 298 299 299 299 300 300 303 305 304 304 302 298 295 293 288 283 279 273 266 261 259 260 267 278 281 281 285 289 292 295 297 298 301 303 307 311 309 308 311 311 304 297
338 341 340 338 337 336 335 333 330 328 326 323 322 321 320 319 319 319 318 317 318 318 317 316 315 315 316 317 316 314 314 317 316 312 310 309 307 306 304 302 300 298 297 298 299 298 300 302 304 305 302 302 304 302 296 291 287 283 281 276 267 254 246 249 259 267 278 281 283 292 299 300 302 303 304 305 307 311 316 313 308 310 310 304 300
347 344 340 337 336 334 333 332 329 327 325 323 322 321 319 318 317 317 316 314 315 317 317 315 314 314 315 316 317 315 314 319 321 316 311 309 307 307 306 303 300 299 298 300 301 302 305 306 305 303 302 304 306 300 296 293 285 280 275 263 247 242 256 271 278 276 278 279 282 289 293 293 295 296 297 298 300 304 307 305 301 299 295 288 289
348 343 339 337 335 333 332 331 330 329 326 323 322 319 316 315 315 314 313 312 314 316 317 315 312 312 315 317 318 317 316 321 324 319 313 310 309 311 311 308 306 303 301 304 308 310 311 309 307 305 302 304 303 298 302 306 294 279 267 237 267 343 317 297 314 314 300 296 298 298 296 295 296 297 297 296 296 298 298 298 296 290 282 279 282
342 339 337 335 333 332 333 332 332 330 325 321 319 317 316 316 317 317 317 316 317 317 317 316 312 311 314 316 318 319 319 321 323 320 316 313 312 316 320 321 318 314 310 310 310 311 312 312 309 304 301 305 304 302 310 324 356 63 45 24 359 359 356 334 338 332 318 315 315 310 306 305 302 300 299 297 296 296 295 295 294 289 282 279 277
337 336 334 333 332 333 334 333 330 327 323 321 320 320 322 322 322 324 323 321 320 318 317 316 312 309 312 315 317 319 320 320 320 319 317 314 312 319 328 328 324 324 326 324 323 325 327 322 311 302 304 309 305 303 319 5 48 36 14 5 5 10 357 335 329 324 319 318 316 312 311 310 308 305 303 301 300 300 298 296 294 291 285 281 279
335 335 333 334 333 334 335 334 331 328 326 325 324 324 327 327 325 325 324 322 320 318 318 317 312 309 312 316 318 319 320 322 322 320 319 315 310 314 325 326 322 327 335 336 336 339 339 335 328 319 312 304 299 311 349 15 18 4 353 356 4 357 338 330 329 326 323 322 319 316 315 314 311 309 307 305 305 303 300 296 293 290 285 282 281
336 335 335 336 337 337 336 335 334 333 331 331 329 327 327 327 327 327 325 323 320 318 319 318 313 311 315 318 320 321 322 324 325 323 323 321 314 311 319 324 322 324 327 327 328 330 331 331 329 328 323 312 315 341 358 356 352 348 342 344 348 340 331 331 331 329 327 324 321 318 318 317 313 311 309 308 306 304 302 298 295 292 288 285 284
338 338 339 340 339 339 337 336 336 336 334 333 331 329 330 330 329 328 326 323 320 316 316 317 315 315 317 318 320 322 323 324 324 322 323 323 319 316 319 323 323 321 319 317 317 320 322 319 313 315 323 321 319 326 331 334 339 340 336 335 334 331 330 330 330 329 327 325 324 321 319 319 315 311 310 309 307 305 304 302 300 298 295 291 288
342 342 341 341 340 338 337 337 338 335 334 334 332 331 331 329 328 327 325 322 319 315 313 315 318 319 319 318 318 319 321 323 323 323 323 323 322 321 320 320 321 319 317 314 311 312 314 310 303 302 309 311 311 312 315 321 328 332 332 333 331 329 329 328 327 327 325 324 323 320 317 316 312 310 311 310 308 307 305 304 303 301 300 298 295
345 342 340 339 338 337 337 337 336 334 335 336 335 333 333 330 328 327 325 323 321 317 316 319 324 324 321 318 316 316 320 324 324 326 327 324 324 324 322 321 320 318 317 314 308 309 314 309 296 292 298 304 312 317 319 320 323 324 328 330 327 325 326 325 325 325 323 321 320 316 314 313 311 311 312 311 309 310 310 309 307 304 304 304 301
344 340 339 337 336 337 337 335 335 335 337 339 339 338 336 333 329 326 325 326 327 325 325 327 328 325 320 316 315 317 321 325 326 329 330 328 327 327 324 321 319 317 318 316 313 314 316 304 284 283 294 302 310 318 322 325 326 326 325 325 323 321 320 320 319 319 317 317 316 314 312 312 312 312 313 313 312 313 314 314 311 308 310 310 303
342 339 338 337 337 339 338 336 335 336 338 341 341 339 337 334 330 327 328 330 330 329 327 326 323 320 316 316 319 321 323 326 329 330 330 327 324 321 319 317 316 315 314 313 311 308 300 283 273 283 295 304 312 320 325 328 330 329 325 322 319 316 314 314 314 313 313 315 316 314 312 313 313 313 314 313 313 314 316 318 315 312 315 314 304
341 340 339 339 341 341 339 338 337 338 339 340 340 340 339 335 331 329 330 331 328 325 322 320 320 321 322 323 325 324 324 326 326 323 321 318 317 317 316 315 315 313 310 308 305 295 277 266 283 300 310 318 326 330 331 330 329 327 324 321 319 317 317 319 318 318 318 318 316 314 313 313 312 312 312 311 310 313 316 317 315 313 314 311 302
344 343 343 344 344 342 339 339 340 339 339 339 339 340 341 338 334 332 331 330 328 325 323 322 323 326 328 328 327 324 323 323 322 320 319 319 319 319 317 315 312 308 306 307 309 299 280 292 320 328 331 334 337 338 335 332 329 326 324 323 322 321 321 322 322 323 321 319 317 315 313 311 309 310 310 308 308 310 313 313 312 312 312 308 302
349 347 347 347 345 343 341 341 341 340 341 342 341 339 338 337 336 335 333 332 331 330 329 328 329 330 331 331 330 327 324 323 324 325 326 326 325 322 319 315 308 301 300 305 324 344 340 342 343 344 343 341 343 343 337 332 329 327 326 324 322 323 324 324 324 324 321 319 318 316 313 310 308 307 307 306 306 308 310 312 313 312 310 307 301
352 350 350 348 347 346 344 342 341 341 342 344 343 340 338 336 335 335 335 335 333 332 333 333 333 334 333 333 331 330 328 327 328 331 331 329 326 323 323 321 311 299 295 304 350 359 355 359 355 350 349 348 348 345 338 332 329 327 326 324 322 323 323 323 323 322 320 319 317 314 311 309 308 307 306 305 305 306 308 310 311 311 310 307 301
354 351 351 349 347 346 345 343 344 344 343 344 343 342 340 337 333 332 334 336 337 336 336 336 336 336 336 335 334 333 331 331 332 333 333 331 328 328 331 334 335 335 339 353 6 11 14 9 359 355 352 348 345 341 335 331 328 325 324 323 320 320 320 320 321 320 319 318 315 311 310 311 310 309 308 307 306 306 306 306 308 309 308 304 300
354 354 354 352 348 347 346 345 345 346 346 345 343 341 340 337 334 332 333 335 337 338 339 340 342 343 341 339 338 336 334 334 334 335 334 334 335 337 336 336 348 10 18 14 10 10 6 359 352 348 344 341 339 337 333 330 327 323 321 319 318 318 319 320 320 319 318 317 315 313 313 313 311 309 308 308 308 307 305 305 307 307 305 302 300
355 357 358 356 351 349 347 347 347 348 347 345 342 340 339 338 336 335 334 333 333 333 333 337 344 347 345 341 339 339 337 336 335 336 338 339 341 344 346 349 356 5 10 12 9 1 355 350 344 339 336 334 332 330 328 327 325 322 319 318 318 318 319 319 318 318 317 316 313 311 310 310 310 310 309 307 307 305 303 304 305 304 302 300 299
355 356 358 357 352 348 347 348 349 348 345 342 342 341 341 340 337 335 334 333 332 329 329 333 340 346 348 347 347 345 341 338 336 336 339 343 346 351 358 1 1 359 360 3 2 356 350 345 339 334 332 328 325 323 322 322 321 318 315 315 316 316 316 316 316 315 313 310 309 309 310 311 312 314 312 308 305 303 301 301 303 302 301 300 300
355 355 356 355 350 347 347 348 349 347 345 343 343 343 342 341 339 336 335 334 333 331 331 334 338 342 344 348 351 351 345 338 335 337 340 344 349 355 358 357 354 351 350 350 350 346 340 335 331 328 325 322 319 318 317 317 316 314 312 312 312 312 312 311 310 308 307 306 308 310 311 311 312 313 311 306 303 303 303 302 302 302 301 301 302
356 355 355 354 350 347 347 348 349 348 346 345 345 344 342 339 339 337 335 335 334 333 333 335 336 336 337 341 348 349 344 337 336 340 343 346 348 351 352 349 346 344 341 338 337 334 329 325 323 321 319 317 315 315 315 315 314 312 310 310 309 309 309 308 307 307 308 308 309 311 310 310 311 312 310 305 302 302 303 304 303 303 303 303 303
358 357 356 355 352 349 348 348 348 348 346 345 345 344 341 339 338 337 335 335 335 333 333 333 333 333 336 339 343 344 340 337 338 339 341 342 344 345 344 341 338 336 333 330 330 328 324 321 319 317 315 314 314 314 314 313 312 310 309 309 308 307 308 308 308 309 310 309 309 310 310 310 311 312 310 306 303 302 303 304 304 303 303 303 303
358 357 356 355 354 351 351 351 350 347 346 344 344 344 342 339 337 336 335 335 334 332 331 330 329 332 337 339 339 338 334 332 333 335 335 336 338 339 339 338 334 331 329 326 324 323 321 319 317 316 314 314 314 314 313 312 311 310 309 308 307 305 306 307 307 307 308 309 309 309 310 310 312 313 310 307 305 304 304 304 304 303 302 301 302
358 354 353 354 354 352 352 352 350 348 346 345 344 344 342 339 337 337 337 336 334 332 331 329 329 333 338 338 335 334 332 330 331 333 333 333 333 333 333 333 331 328 325 322 320 319 317 316 314 313 313 313 313 314 313 312 311 310 309 308 306 305 304 305 306 307 308 308 308 308 309 310 311 309 306 306 306 306 304 303 302 302 302 302 302
354 351 351 353 354 352 351 350 348 347 347 346 344 343 340 339 339 340 338 336 335 333 331 331 332 335 339 340 339 337 335 334 335 334 333 332 332 331 331 331 330 328 324 321 318 317 315 313 313 313 313 314 314 315 314 313 312 310 308 307 305 304 304 305 307 308 309 308 308 308 308 309 308 305 304 305 306 305 305 304 302 302 302 301 303
349 349 349 350 351 350 350 349 348 346 346 343 341 341 341 342 342 342 340 338 337 335 332 332 334 336 339 342 344 342 340 340 339 336 334 334 333 331 331 331 330 328 325 322 320 320 317 314 314 314 314 315 316 316 315 314 313 310 307 306 304 303 303 305 307 310 310 309 308 308 308 307 307 305 304 305 305 305 304 303 301 301 301 301 302
349 349 347 347 348 349 349 348 347 345 344 343 341 342 344 344 344 343 342 339 338 336 334 333 334 336 338 342 345 344 342 341 340 337 336 335 334 333 334 334 333 331 329 327 326 325 322 319 318 318 317 318 318 317 315 314 312 310 307 305 302 301 302 304 307 310 310 308 306 307 306 306 305 303 302 304 305 304 303 301 300 300 300 300 301
349 349 347 346 347 347 347 348 348 346 345 344 344 344 346 346 345 344 342 340 338 336 336 336 337 337 338 340 342 342 340 340 339 337 337 336 335 336 337 337 336 334 333 332 332 331 328 325 323 321 320 320 320 319 317 315 313 311 307 303 301 300 301 305 307 308 307 305 303 303 303 301 300 300 300 302 303 301 299 299 299 298 297 298 298
348 348 349 348 348 348 348 348 348 347 346 346 345 344 345 346 345 344 343 341 340 338 337 339 340 340 339 339 340 339 339 339 338 338 338 338 338 338 339 338 338 336 335 334 334 333 331 329 326 323 322 322 321 321 319 317 315 313 310 306 303 302 304 307 308 306 305 303 301 300 299 297 296 296 297 298 299 298 297 297 297 295 294 295 296
351 352 353 353 351 351 351 350 350 348 348 347 346 344 344 344 345 345 345 344 343 342 341 341 341 340 339 339 339 338 339 338 338 338 339 338 338 339 339 338 338 337 336 337 337 335 334 333 330 326 325 324 323 323 323 320 318 316 312 310 308 306 307 310 308 304 303 302 299 297 295 293 292 293 294 295 296 295 295 296 295 294 294 294 294
355 356 357 356 355 353 353 352 351 350 348 347 346 345 345 345 346 346 346 346 345 344 343 342 341 340 339 340 340 340 339 339 338 339 339 339 340 341 340 339 339 338 337 338 339 338 337 335 333 331 329 328 326 325 324 321 319 317 314 313 312 310 310 310 306 302 300 298 295 293 292 290 289 290 291 291 292 292 293 293 293 293 294 294 294
353 355 355 355 355 354 353 352 351 350 349 348 346 345 346 346 346 347 347 346 345 344 343 342 341 341 340 341 342 341 341 341 341 341 341 342 342 342 342 341 341 340 339 339 340 341 341 340 338 336 335 332 330 328 326 323 321 319 316 314 314 313 312 309 303 297 294 292 291 290 288 286 285 286 287 288 289 289 290 290 291 292 293 293 293
347 349 351 352 352 352 351 351 350 350 350 349 347 346 346 346 345 346 346 345 344 345 344 342 342 342 342 342 342 342 341 341 341 341 342 342 343 344 344 343 343 343 342 342 343 344 345 345 344 342 340 337 335 332 329 325 322 319 317 316 316 313 309 302 294 289 288 288 288 287 283 281 282 284 285 287 288 288 289 290 290 290 290 289 289
342 344 345 347 349 349 349 348 348 349 349 349 347 345 345 344 344 345 345 344 343 343 343 343 343 344 343 343 343 342 342 343 343 343 343 344 345 345 346 345 346 346 346 347 348 349 349 349 348 346 344 342 338 335 331 327 324 321 317 313 308 303 297 292 289 288 289 288 286 283 280 280 282 283 284 286 287 287 287 288 287 287 287 287 289